x

Big Sable Point, Mi (bsbm4) Weather Station

2:40pm - Fri 12th Feb 2016 All times are CST. -6 hours from GMT.

  • Wind
    31mph, 37mph gusts
  • Air Temp 17°f
  • Sea Pressure 1018.6mb
  • Big Sable Point, Mi
  • Big Sable Point, Mi

More Historic Weather Station data

Upgrade to MSW Pro to gain access to the past 30 days of data for over 8000 Wavebouys and Weather Stations around the globe.

Join Pro

Comparision Forecast

View Surf forecast
   
Fri 02/12 2:40pm 31 37 mph 1018.6mb 17f
2:30pm 34 43 mph 1019.3mb 16f
2:20pm 26 38 mph 1019mb 18f
2:10pm 26 38 mph 1018.6mb 17f
2:00pm 24 37 mph 1018.6mb 17f
1:40pm 34 39 mph 1018.3mb 18f
1:30pm 26 36 mph 1018.6mb 17f
1:20pm 24 34 mph 1018.3mb 18f
1:10pm 28 29 mph 1018.3mb 18f
1:00pm 28 34 mph 1018.3mb 18f
12:40pm 29 33 mph 1018.3mb 18f
12:30pm 25 33 mph 1018.3mb 18f
12:20pm 28 37 mph 1018.3mb 18f
12:10pm 24 31 mph 1018.3mb 18f
12:00pm 26 34 mph 1018.3mb 18f
11:40am 28 33 mph 1017.9mb 18f
11:30am 25 33 mph 1017.9mb 19f
11:20am 26 34 mph 1017.9mb 18f
11:10am 26 32 mph 1017.9mb 19f
11:08am 25 30 mph 1017.9mb 18f
11:00am 28 34 mph 1017.9mb 18f
10:40am 26 33 mph 1017.9mb 19f
10:30am 26 33 mph 1017.9mb 18f
10:20am 31 36 mph 1017.9mb 18f
10:10am 26 33 mph 1017.9mb 18f
10:05am 29 32 mph 1017.9mb 18f
10:00am 26 32 mph 1017.9mb 18f
9:40am 29 32 mph 1017.6mb 18f
9:30am 26 36 mph 1017.6mb 19f
9:20am 23 30 mph 1017.6mb 19f
9:10am 24 32 mph 1017.6mb 19f
9:05am 24 29 mph 1017.6mb 19f
9:00am 25 31 mph 1017.6mb 19f
8:40am 22 32 mph 1017.9mb 18f
8:30am 26 31 mph 1017.9mb 18f
8:20am 22 30 mph 1017.9mb 18f
8:10am 24 32 mph 1017.9mb 19f
8:03am 24 30 mph 1017.6mb 19f
8:00am 25 30 mph 1017.9mb 19f
7:40am 22 32 mph 1017.6mb 19f
7:30am 24 36 mph 1017.6mb 19f
7:20am 26 33 mph 1017.6mb 19f
7:10am 30 34 mph 1017.6mb 19f
7:01am 26 29 mph 1017.6mb 20f
7:00am 26 34 mph 1017.6mb 20f
6:40am 24 32 mph 1017.6mb 20f
6:30am 25 31 mph 1017.6mb 20f
6:20am 24 30 mph 1017.6mb 20f
6:10am 28 32 mph 1017.9mb 20f
6:01am 25 29 mph 1017.6mb 20f
6:00am 25 31 mph 1017.9mb 20f
5:40am 24 31 mph 1017.9mb 20f
5:30am 21 28 mph 1017.6mb 20f
5:20am 22 31 mph 1017.9mb 20f
5:10am 22 29 mph 1017.9mb 20f
5:00am 23 33 mph 1017.9mb 20f
4:59am 24 29 mph 1017.9mb 20f
4:40am 23 29 mph 1017.9mb 21f
4:30am 24 30 mph 1017.9mb 21f
4:20am 24 30 mph 1017.9mb 21f
4:10am 26 30 mph 1017.9mb 21f
4:00am 24 29 mph 1017.9mb 21f
3:57am 23 29 mph 1017.9mb 21f
3:40am 25 31 mph 1017.9mb 21f
3:30am 23 28 mph 1017.9mb 21f
3:20am 23 28 mph 1018.3mb 21f
3:10am 23 29 mph 1018.3mb 21f
3:00am 24 30 mph 1018.3mb 21f
2:56am 22 30 mph 1018.3mb 21f
2:40am 22 29 mph 1018.6mb 21f
2:30am 22 30 mph 1018.6mb 22f
2:20am 25 30 mph 1018.6mb 22f
2:10am 25 31 mph 1019mb 22f
2:00am 23 31 mph 1019mb 22f
1:43am 25 30 mph 1019mb 22f
1:40am 23 32 mph 1019mb 22f
1:30am 26 30 mph 1019.3mb 22f
1:20am 25 30 mph 1019.6mb 22f
1:10am 23 29 mph 1019.6mb 22f
1:00am 23 29 mph 1019.6mb 22f
12:41am 20 29 mph 1020mb 22f
12:40am 20 29 mph 1020mb 22f
12:30am 22 31 mph 1020.3mb 22f
12:20am 22 31 mph 1020.3mb 22f
12:10am 21 29 mph 1020.7mb 22f
12:00am 20 28 mph 1020.7mb 22f
Thu 02/11 11:40pm 20 30 mph 1021mb 22f
11:37pm 23 30 mph 1021mb 22f
11:30pm 21 29 mph 1021.3mb 22f
11:20pm 20 28 mph 1021.3mb 22f
11:10pm 18 28 mph 1021.3mb 21f
11:00pm 18 28 mph 1021.3mb 21f
10:40pm 21 29 mph 1021.7mb 21f
10:30pm 21 30 mph 1022mb 21f
10:20pm 21 28 mph 1021.7mb 21f
10:10pm 20 30 mph 1022.4mb 21f
10:00pm 22 29 mph 1022.4mb 21f
9:54pm 21 29 mph 1022.4mb 22f
9:40pm 21 28 mph 1022.4mb 22f
9:30pm 23 28 mph 1022.4mb 22f
9:20pm 18 24 mph 1022.4mb 21f
9:10pm 16 24 mph 1022.4mb 21f
9:00pm 20 24 mph 1022.4mb 21f
8:40pm 15 22 mph 1022.7mb 21f
8:30pm 15 21 mph 1022.7mb 20f
8:20pm 13 25 mph 1023mb 20f
8:10pm 17 23 mph 1023mb 20f
8:00pm 14 20 mph 1023.4mb 20f
7:40pm 16 18 mph 1023.4mb 20f
7:30pm 14 22 mph 1023.4mb 20f
7:20pm 17 23 mph 1023.4mb 20f
7:10pm 18 26 mph 1023.7mb 20f
7:00pm 21 24 mph 1023.7mb 20f
6:40pm 16 22 mph 1023.7mb 19f
6:30pm 16 23 mph 1023.7mb 19f
6:20pm 16 23 mph 1023.7mb 19f
6:10pm 17 22 mph 1023.7mb 19f
6:00pm 17 22 mph 1023.7mb 19f
5:40pm 16 22 mph 1023.4mb 19f
5:30pm 15 20 mph 1023.4mb 19f
5:20pm 14 18 mph 1023.7mb 19f
5:10pm 16 20 mph 1023.4mb 18f
5:00pm 11 20 mph 1023.7mb 18f
4:40pm 11 18 mph 1023.7mb 18f
4:30pm 10 18 mph 1023.7mb 18f
4:20pm 10 21 mph 1023.7mb 17f
4:10pm 10 18 mph 1023.7mb 18f
4:00pm 9 16 mph 1023.7mb 18f
3:40pm 13 21 mph 1023.7mb 18f
3:30pm 11 18 mph 1024mb 18f
3:20pm 13 18 mph 1023.7mb 18f
3:10pm 13 16 mph 1023.7mb 19f
3:00pm 14 16 mph 1023.7mb 18f
2:50pm 11 16 mph 1024mb 17f
2:40pm 11 20 mph 1024mb 18f
2:30pm 13 17 mph 1024mb 19f
2:20pm 13 18 mph 1024mb 17f
2:10pm 13 20 mph 1024mb 18f
2:00pm 9 17 mph 1024mb 18f
1:50pm 9 14 mph 1024.4mb 17f
1:40pm 9 16 mph 1024.4mb 18f
1:30pm 7 16 mph 1024.4mb 17f
1:20pm 11 18 mph 1024.4mb 18f
1:10pm 14 16 mph 1024.4mb 18f
1:00pm 13 16 mph 1024.4mb 18f
12:50pm 10 17 mph 1024.4mb 17f
12:40pm 15 17 mph 1024.4mb 18f
12:30pm 11 15 mph 1024.4mb 18f
12:20pm 10 14 mph 1024.4mb 18f
12:10pm 10 16 mph 1024.7mb 18f
12:00pm 13 18 mph 1024.7mb 18f
11:50am 14 17 mph 1024.4mb 18f
11:40am 11 18 mph 1024.4mb 18f
11:30am 10 15 mph 1024.4mb 17f
11:20am 9 15 mph 1024.4mb 18f
11:10am 10 17 mph 1024.4mb 18f
11:00am 8 17 mph 1024.4mb 17f
10:50am 13 15 mph 1024.4mb 18f
10:40am 10 16 mph 1024.4mb 17f
10:30am 13 20 mph 1024.4mb 17f
10:20am 9 15 mph 1024mb 17f
10:10am 9 15 mph 1024mb 17f
10:00am 15 22 mph 1024mb 17f
9:50am 15 21 mph 1024mb 17f
9:40am 16 20 mph 1024mb 17f
9:30am 11 21 mph 1024mb 17f
9:20am 14 18 mph 1024mb 17f
9:10am 15 21 mph 1023.7mb 17f
9:00am 16 20 mph 1023.7mb 17f
8:50am 11 22 mph 1023.7mb 17f
8:40am 13 23 mph 1023.7mb 17f
8:30am 17 24 mph 1023.4mb 17f
8:20am 15 23 mph 1023.4mb 17f
8:10am 16 23 mph 1023.4mb 17f
8:00am 17 23 mph 1023.4mb 17f
7:50am 16 23 mph 1023.4mb 17f
7:40am 17 24 mph 1023mb 17f
7:30am 18 28 mph 1023mb 17f
7:20am 17 22 mph 1022.7mb 17f
7:10am 20 28 mph 1022.7mb 17f
7:00am 16 25 mph 1022.7mb 17f
6:50am 23 29 mph 1022.4mb 17f
6:40am 24 29 mph 1022.4mb 17f
6:30am 17 26 mph 1022.4mb 17f
6:20am 16 28 mph 1022mb 17f
6:10am 21 25 mph 1021.7mb 17f
6:00am 20 29 mph 1022mb 17f
5:55am 22 29 mph 1021.7mb 17f
5:50am 18 26 mph 1021.7mb 17f
5:40am 20 29 mph 1021.7mb 17f
5:30am 21 28 mph 1021.7mb 17f
5:20am 25 29 mph 1021.7mb 17f
5:10am 24 29 mph 1021.7mb 17f
5:00am 20 30 mph 1021.3mb 16f
4:50am 23 29 mph 1021.3mb 17f
4:40am 20 26 mph 1021.3mb 16f
4:30am 22 26 mph 1021mb 16f
4:20am 21 29 mph 1021mb 17f
4:10am 25 30 mph 1020.7mb 17f
4:00am 22 29 mph 1020.7mb 17f
3:50am 22 26 mph 1020.7mb 17f
3:40am 22 28 mph 1020.7mb 17f
3:30am 23 29 mph 1020.3mb 17f
3:20am 21 28 mph 1020.3mb 17f
3:10am 21 29 mph 1020.3mb 17f
3:00am 22 29 mph 1020.3mb 17f
2:50am 20 26 mph 1020mb 17f
2:40am 23 26 mph 1020mb 17f
2:30am 23 29 mph 1020mb 17f
2:28am 18 29 mph 1020mb 17f
2:20am 21 26 mph 1020mb 16f
2:10am 20 26 mph 1020mb 16f
2:00am 18 25 mph 1020mb 17f
1:50am 21 25 mph 1020mb 16f
1:40am 23 29 mph 1020.3mb 16f
1:30am 22 26 mph 1020mb 16f
1:20am 20 25 mph 1020mb 16f
1:10am 17 24 mph 1020mb 16f
1:00am 17 24 mph 1020mb 15f
12:50am 23 28 mph 1020mb 16f
12:40am 22 31 mph 1020mb 16f
12:38am 22 31 mph 1019.6mb 16f
12:30am 21 25 mph 1020mb 16f
12:20am 24 26 mph 1019.6mb 16f
12:10am 20 28 mph 1019.6mb 16f
12:00am 18 31 mph 1019.6mb 16f
Wed 02/10 11:50pm 22 28 mph 1019.6mb 15f
11:40pm 24 29 mph 1019.6mb 16f
11:38pm 20 29 mph 1019.6mb 16f
11:30pm 18 28 mph 1019.6mb 15f
11:20pm 18 28 mph 1019.6mb 15f
11:10pm 15 29 mph 1019.6mb 16f
11:00pm 22 28 mph 1019.6mb 16f
10:50pm 21 26 mph 1019.6mb 16f
10:40pm 21 29 mph 1019.3mb 16f
10:30pm 16 29 mph 1019.3mb 15f
10:22pm 22 29 mph 1019.3mb 16f
10:20pm 21 29 mph 1019.3mb 16f
10:10pm 23 28 mph 1019mb 16f
10:00pm 24 28 mph 1019mb 16f
9:50pm 22 29 mph 1019mb 16f
9:40pm 17 24 mph 1019mb 16f
9:30pm 25 31 mph 1019mb 16f
9:20pm 20 31 mph 1018.6mb 16f
9:10pm 20 28 mph 1018.6mb 16f
9:00pm 23 26 mph 1018.6mb 16f
8:50pm 25 31 mph 1018.6mb 17f
8:40pm 16 28 mph 1018.6mb 16f
8:30pm 22 30 mph 1018.6mb 16f
8:20pm 25 30 mph 1018.6mb 17f
8:18pm 20 30 mph 1018.3mb 17f
8:10pm 22 28 mph 1018.3mb 17f
8:00pm 25 31 mph 1018.3mb 17f
7:50pm 21 30 mph 1018.3mb 17f
7:40pm 24 31 mph 1017.9mb 17f
7:30pm 18 31 mph 1017.9mb 17f
7:20pm 23 30 mph 1017.9mb 17f
7:10pm 24 29 mph 1017.6mb 17f
7:00pm 23 30 mph 1017.6mb 17f
6:59pm 23 29 mph 1017.6mb 17f
6:50pm 24 31 mph 1017.6mb 17f
6:40pm 22 33 mph 1017.6mb 17f
6:30pm 25 32 mph 1017.3mb 18f
6:20pm 28 31 mph 1017.6mb 17f
6:10pm 25 34 mph 1017.3mb 17f
6:00pm 28 32 mph 1017.3mb 18f
5:56pm 25 30 mph 1017.3mb 18f
5:50pm 20 28 mph 1016.9mb 17f
5:40pm 22 32 mph 1016.9mb 17f
5:30pm 21 33 mph 1016.9mb 17f
5:20pm 20 33 mph 1016.6mb 18f
5:10pm 26 34 mph 1016.3mb 17f
5:00pm 25 33 mph 1016.3mb 17f
4:55pm 23 33 mph 1016.3mb 18f
4:50pm 25 31 mph 1016.3mb 18f
4:40pm 22 30 mph 1015.9mb 17f
4:30pm 25 30 mph 1015.9mb 17f
4:20pm 26 31 mph 1015.6mb 17f
4:10pm 24 36 mph 1015.6mb 17f
4:00pm 20 32 mph 1015.6mb 17f
3:54pm 24 31 mph 1015.2mb 17f
3:50pm 24 31 mph 1015.2mb 17f
3:40pm 23 32 mph 1015.2mb 17f
3:30pm 25 30 mph 1015.2mb 17f
3:20pm 26 30 mph 1015.2mb 17f
3:10pm 26 32 mph 1014.9mb 17f
3:00pm 24 30 mph 1014.9mb 17f
2:50pm 22 31 mph 1014.6mb 17f
2:46pm 24 30 mph 1014.6mb 17f
2:40pm 23 31 mph 1014.6mb 17f
2:30pm 22 30 mph 1014.6mb 16f
2:20pm 25 31 mph 1014.6mb 16f
2:10pm 21 26 mph 1014.6mb 16f
2:00pm 23 30 mph 1014.6mb 16f
1:50pm 21 31 mph 1014.6mb 16f
1:45pm 25 30 mph 1014.6mb 16f
1:40pm 25 31 mph 1014.6mb 16f
1:30pm 25 30 mph 1014.6mb 16f
1:20pm 22 32 mph 1014.2mb 16f
1:10pm 25 29 mph 1014.2mb 16f
1:00pm 22 28 mph 1014.2mb 16f
12:50pm 24 31 mph 1014.2mb 15f
12:43pm 23 31 mph 1013.9mb 15f
12:40pm 25 31 mph 1014.2mb 15f
12:30pm 24 29 mph 1014.2mb 16f
12:20pm 21 31 mph 1014.2mb 16f
12:10pm 21 32 mph 1014.2mb 16f
12:00pm 25 32 mph 1014.2mb 16f
11:40am 24 29 mph 1014.2mb 16f
11:39am 24 29 mph 1014.2mb 16f
11:30am 23 29 mph 1014.6mb 16f
11:20am 22 30 mph 1014.6mb 16f
11:10am 22 28 mph 1014.6mb 16f
11:00am 23 30 mph 1014.6mb 16f
10:50am 24 31 mph 1014.6mb 16f
10:40am 24 32 mph 1014.6mb 16f
10:36am 23 29 mph 1014.6mb 16f
10:30am 25 31 mph 1014.2mb 17f
10:20am 22 30 mph 1014.2mb 16f
10:10am 22 32 mph 1014.2mb 16f
10:00am 28 32 mph 1014.2mb 16f
9:50am 24 34 mph 1014.2mb 16f
9:40am 26 31 mph 1013.9mb 16f
9:35am 21 30 mph 1014.2mb 17f
9:30am 28 33 mph 1013.9mb 16f
9:20am 22 36 mph 1013.9mb 16f
9:10am 23 32 mph 1013.5mb 17f
9:00am 26 33 mph 1013.5mb 17f
8:50am 28 33 mph 1013.5mb 16f
8:40am 23 36 mph 1013.5mb 16f
8:34am 23 29 mph 1013.2mb 16f
8:30am 24 31 mph 1013.5mb 16f
8:20am 26 34 mph 1013.2mb 16f
8:10am 21 31 mph 1013.2mb 16f
8:00am 25 37 mph 1013.2mb 16f
7:50am 24 36 mph 1013.2mb 16f
7:40am 26 33 mph 1012.9mb 16f
7:30am 23 32 mph 1012.5mb 16f
7:29am 22 29 mph 1012.9mb 16f
7:20am 18 29 mph 1012.9mb 16f
7:10am 24 29 mph 1012.5mb 16f
7:00am 22 33 mph 1012.5mb 16f
6:50am 30 37 mph 1012.5mb 17f
6:40am 26 38 mph 1012.2mb 17f
6:30am 25 32 mph 1012.2mb 17f
6:25am 21 29 mph 1012.2mb 17f
6:20am 25 36 mph 1012.2mb 17f
6:10am 24 32 mph 1012.2mb 17f
6:00am 29 34 mph 1012.2mb 17f
5:50am 24 34 mph 1012.2mb 18f
5:40am 25 32 mph 1011.9mb 18f
5:30am 26 36 mph 1011.9mb 17f
5:22am 24 29 mph 1011.9mb 18f
5:20am 28 33 mph 1011.9mb 18f
5:10am 28 37 mph 1011.9mb 18f
5:00am 22 34 mph 1011.9mb 18f
4:50am 23 37 mph 1011.9mb 18f
4:40am 29 34 mph 1011.9mb 18f
4:30am 28 38 mph 1011.5mb 18f
4:20am 34 41 mph 1011.2mb 18f
4:19am 31 41 mph 1011.5mb 18f
4:10am 31 37 mph 1011.2mb 18f
4:00am 30 39 mph 1010.8mb 18f
3:50am 30 38 mph 1011.2mb 19f
3:40am 26 39 mph 1011.2mb 19f
3:30am 30 39 mph 1011.2mb 19f
3:20am 32
mph
1011.2mb 19f
3:10am 28 49 mph 1011.2mb 19f
3:00am 33 40 mph 1010.8mb 19f
2:50am 36 44 mph 1010.8mb 19f
2:40am 32 41 mph 1010.8mb 19f
2:30am 29 40 mph 1010.8mb 19f
2:20am 31 40 mph 1010.8mb 19f
2:10am 30 39 mph 1010.8mb 19f
2:00am 34 39 mph 1010.8mb 19f
1:50am 33 39 mph 1010.8mb 19f
1:40am 33 40 mph 1010.8mb 19f
1:30am 30 44 mph 1010.8mb 19f
1:25am 33
mph
1010.5mb 19f
1:20am 31 36 mph 1010.5mb 19f
1:10am 32 38 mph 1010.5mb 20f
1:00am 32 38 mph 1010.5mb 20f
12:50am 32 38 mph 1010.5mb 20f
12:40am 31 37 mph 1010.5mb 20f
12:30am 31 44 mph 1010.5mb 20f
12:25am 31 44 mph 1010.5mb 20f
12:20am 29 37 mph 1010.5mb 20f
12:10am 32 39 mph 1010.5mb 20f
12:00am 30 37 mph 1010.5mb 20f
Tue 02/09 11:50pm 28 36 mph 1010.5mb 20f
11:40pm 30 36 mph 1010.5mb 20f
11:34pm 32
mph
1010.5mb 20f
11:30pm 29 37 mph 1010.5mb 20f
11:20pm 32 37 mph 1010.5mb 20f
11:10pm 29 38 mph 1010.5mb 20f
11:00pm 29 38 mph 1010.5mb 20f
10:50pm 28 34 mph 1010.8mb 21f
10:40pm 28 36 mph 1010.8mb 20f
10:33pm 29 30 mph 1010.5mb 20f
10:30pm 29 38 mph 1010.5mb 20f
10:20pm 29 34 mph 1010.5mb 20f
10:10pm 30 38 mph 1010.8mb 20f
10:00pm 31 39 mph 1010.5mb 20f
9:50pm 31 41 mph 1010.5mb 20f
9:40pm 31 40 mph 1010.8mb 20f
9:33pm 32 40 mph 1010.5mb 20f
9:30pm 32 38 mph 1010.8mb 20f
9:20pm 31 38 mph 1010.8mb 20f
9:10pm 32 39 mph 1010.8mb 20f
9:00pm 31 37 mph 1010.8mb 20f
8:50pm 30 36 mph 1010.5mb 21f
8:40pm 31 38 mph 1010.5mb 21f
8:30pm 29 37 mph 1010.5mb 21f
8:23pm 31
mph
1010.5mb 21f
8:20pm 31 38 mph 1010.8mb 21f
8:10pm 29 36 mph 1010.5mb 21f
8:00pm 31 38 mph 1010.8mb 21f
7:50pm 28 37 mph 1010.8mb 21f
7:40pm 28 36 mph 1010.5mb 21f
7:30pm 28 39 mph 1010.5mb 21f
7:22pm 32
mph
1010.5mb 21f
7:20pm 26 40 mph 1010.5mb 21f
7:10pm 31 37 mph 1010.5mb 21f
7:00pm 31 38 mph 1010.5mb 21f
6:40pm 30 38 mph 1010.2mb 22f
6:30pm 29 38 mph 1010.2mb 22f
6:22pm 30 32 mph 1010.5mb 22f
6:20pm 30 38 mph 1010.2mb 22f
6:10pm 32 37 mph 1010.2mb 22f
6:00pm 31 37 mph 1010.2mb 23f
5:50pm 31 39 mph 1010.2mb 22f
5:40pm 31 37 mph 1009.8mb 23f
5:30pm 30 37 mph 1009.8mb 23f
5:21pm 30 31 mph 1009.8mb 23f
5:20pm 30 34 mph 1009.8mb 23f
5:10pm 26 36 mph 1009.5mb 23f
5:00pm 31 36 mph 1009.5mb 23f
4:50pm 29 36 mph 1009.5mb 23f
4:40pm 28 34 mph 1009.1mb 23f
4:30pm 29 36 mph 1009.1mb 23f
4:21pm 30
mph
1009.1mb 23f
4:20pm 30 36 mph 1009.1mb 23f
4:10pm 30 36 mph 1009.1mb 23f
4:00pm 29 34 mph 1009.1mb 23f
3:50pm 28 33 mph 1008.8mb 23f
3:40pm 29 34 mph 1008.8mb 23f
3:30pm 25 34 mph 1008.5mb 23f
3:21pm 29
mph
1008.5mb 23f
3:20pm 29 34 mph 1008.5mb 23f
3:10pm 26 34 mph 1008.5mb 23f
3:00pm 25 32 mph 1008.1mb 23f
2:50pm 26 33 mph 1008.1mb 23f
2:40pm 24 32 mph 1007.8mb 23f
2:30pm 24 32 mph 1007.8mb 23f
2:20pm 28 30 mph 1007.8mb 23f
2:10pm 28 31 mph 1007.5mb 23f
2:00pm 26 32 mph 1007.5mb 23f
1:50pm 25 32 mph 1007.5mb 23f
1:40pm 23 33 mph 1007.5mb 24f
1:30pm 25 34 mph 1007.5mb 23f
1:20pm 29
mph
1007.1mb 24f
1:10pm 26 32 mph 1007.1mb 23f
1:00pm 28 33 mph 1007.1mb 23f
12:40pm 26 33 mph 1007.1mb 23f
12:30pm 25 31 mph 1007.1mb 23f
12:20pm 25 31 mph 1007.1mb 23f
12:19pm 25 30 mph 1007.1mb 24f
12:10pm 25 29 mph 1007.1mb 24f
12:00pm 25 30 mph 1007.1mb 23f
11:50am 28 31 mph 1007.1mb 24f
11:40am 25 30 mph 1007.1mb 24f
11:30am 26 31 mph 1007.5mb 23f
11:20am 24 31 mph 1007.5mb 23f
11:19am 22 30 mph 1007.5mb 23f
11:10am 25 30 mph 1007.5mb 23f
11:00am 23 30 mph 1007.5mb 24f
10:50am 23 32 mph 1007.5mb 23f
10:40am 28 32 mph 1007.5mb 23f
10:30am 21 31 mph 1007.5mb 23f
10:20am 23 33 mph 1007.5mb 23f
10:15am 26 30 mph 1007.1mb 23f
10:10am 22 29 mph 1007.1mb 23f
10:00am 23 31 mph 1007.1mb 23f
9:50am 25 31 mph 1007.1mb 23f
9:40am 23 30 mph 1007.1mb 23f
9:30am 23 31 mph 1007.1mb 23f
9:20am 24 30 mph 1007.1mb 23f
9:14am 22 29 mph 1007.1mb 24f
9:10am 26 30 mph 1007.1mb 24f
9:00am 21 28 mph 1007.1mb 23f
8:50am 25 32 mph 1007.1mb 23f
8:40am 25 31 mph 1007.1mb 23f
8:30am 26 31 mph 1007.1mb 24f
8:20am 25 31 mph 1006.8mb 23f
8:11am 26 29 mph 1006.8mb 24f
8:10am 26 31 mph 1006.8mb 24f
8:00am 25 30 mph 1006.8mb 24f
7:50am 25 31 mph 1006.8mb 24f
7:40am 23 29 mph 1006.8mb 24f
7:30am 25 29 mph 1006.4mb 24f
7:20am 26 31 mph 1006.4mb 24f
7:11am 21 30 mph 1006.8mb 24f
7:10am 21 30 mph 1006.8mb 24f
7:00am 23 29 mph 1006.4mb 24f
6:50am 24 29 mph 1006.4mb 24f
6:40am 21 28 mph 1006.4mb 23f
6:30am 21 26 mph 1006.1mb 24f
6:20am 23 26 mph 1006.1mb 24f
6:10am 21 29 mph 1006.1mb 23f
6:07am 23 29 mph 1006.1mb 24f
6:00am 24 29 mph 1006.1mb 24f
5:50am 23 29 mph 1006.1mb 24f
5:40am 23 30 mph 1005.8mb 24f
5:30am 23 31 mph 1005.8mb 23f
5:20am 24 28 mph 1005.8mb 24f
5:10am 22 29 mph 1005.8mb 24f
5:01am 22 29 mph 1005.8mb 24f
5:00am 22 29 mph 1005.8mb 24f
4:50am 22 29 mph 1005.8mb 24f
4:40am 21 29 mph 1005.8mb 24f
4:30am 22 29 mph 1005.8mb 24f
4:20am 20 28 mph 1005.8mb 24f
4:10am 22 28 mph 1005.8mb 24f
4:00am 21 26 mph 1005.8mb 24f
3:50am 22 30 mph 1005.4mb 24f
3:40am 26 31 mph 1005.8mb 24f
3:30am 24 30 mph 1005.4mb 24f
3:20am 18 26 mph 1005.4mb 24f
3:10am 21 26 mph 1005.4mb 25f
3:00am 21 29 mph 1005.4mb 25f
2:51am 22 29 mph 1005.4mb 25f
2:50am 22 28 mph 1005.4mb 25f
2:40am 17 26 mph 1005.4mb 25f
2:30am 22 26 mph 1005.4mb 25f
2:20am 18 24 mph 1005.4mb 25f
2:10am 18 25 mph 1005.4mb 25f
2:00am 18 24 mph 1005.4mb 25f
1:50am 20 25 mph 1005.4mb 25f
1:40am 16 25 mph 1005.4mb 25f
1:30am 20 25 mph 1005.4mb 25f
1:20am 16 29 mph 1005.4mb 25f
1:11am 17 29 mph 1005.4mb 25f
1:10am 17 28 mph 1005.4mb 25f
1:00am 20 28 mph 1005.4mb 25f
12:50am 20 28 mph 1005.4mb 25f
12:40am 20 28 mph 1005.4mb 25f
12:30am 21 28 mph 1005.4mb 25f
12:20am 20 28 mph 1005.4mb 25f
12:10am 20 28 mph 1005.4mb 25f
12:00am 22 28 mph 1005.8mb 25f
Mon 02/08 11:50pm 22 28 mph 1005.8mb 26f
11:40pm 18 29 mph 1005.8mb 26f
11:30pm 21 26 mph 1005.8mb 26f
11:20pm 21 30 mph 1005.8mb 26f
11:15pm 18 30 mph 1005.8mb 26f
11:10pm 22 29 mph 1005.8mb 26f
11:00pm 21 28 mph 1005.8mb 26f
10:50pm 22 28 mph 1005.8mb 26f
10:40pm 16 31 mph 1005.8mb 27f
10:30pm 18 28 mph 1005.8mb 27f
10:20pm 20 26 mph 1005.8mb 27f
10:10pm 21 30 mph 1005.4mb 27f
10:00pm 22 29 mph 1005.4mb 27f
9:59pm 21 29 mph 1005.4mb 27f
9:50pm 21 30 mph 1005.8mb 27f
9:40pm 22 29 mph 1005.8mb 27f
9:30pm 20 30 mph 1005.8mb 28f